Location: Carthage
(33.8834°N, 106.6595°W)
Time: 03:26:35
(UTC+00:00)

Cosmos 2322 Rocket - Pass Details

Date: 19 May 2026
Orbit: 831 x 850 km, 71.0° (Epoch: 9 June)

Event Time Altitude Azimuth Distance (km) Brightness Sun altitude
Rises 04:21:14 0° 340° (NNW) 3,406 6.5 -23.9°
Reaches altitude 10° 04:23:41 10° 341° (NNW) 2,470 5.5 -24.3°
Maximum altitude 04:29:23 81° 69° (ENE) 861 2.1 -25.0°
Enters shadow 04:30:07 68° 137° (SE) 912 2.0 -25.1°
